Location: ??????
(38.0131°N, 23.7723°E)
Time: 05:37:26
(UTC+00:00)

H-2A R/B - Pass Details

Date: 17 October 2021
Orbit: 733 x 837 km, 98.2° (Epoch: 28 November)

Event Time Altitude Azimuth Distance (km) Brightness Sun altitude
Rises 16:10:09 0° 155° (SSE) 3,294 5.1 -5.8°
Reaches altitude 10° 16:12:29 10° 151° (SSE) 2,383 4.3 -6.3°
Maximum altitude 16:17:39 59° 73° (ENE) 950 2.2 -7.3°
Drops below altitude 10° 16:22:59 10° 356° (N) 2,446 4.6 -8.3°
Sets 16:25:23 0° 352° (N) 3,390 5.4 -8.8°
